EW7225 Weather Reports


time (UTC)temp
C
wind
direction
speed
KPH
gust
KPH
rain 1hr
cm
rain 24hr
cm
rain mn
cm
humidity
%
barometer
mb
20260504033526 10 0.0 0.0 0.00 0.00 0.00 90 1019.5
20260504032519 10 0.0 0.0 0.00 0.00 0.00 89 1019.6
20260504031533 10 0.0 0.0 0.00 0.00 0.00 89 1019.7
20260504030527 10 0.0 0.0 0.00 0.00 0.00 89 1019.5
20260504025521 10 0.0 0.0 0.00 0.00 0.00 88 1019.7
20260504024534 10 0.0 0.0 0.00 0.00 0.00 88 1019.7
20260504023529 10 0.0 0.0 0.00 0.00 0.00 88 1019.7
20260504022521 10 27 1.6 6.4 0.00 0.00 0.00 88 1019.7
20260504021536 10 0.0 0.0 0.00 0.00 0.00 87 1019.8
20260504020528 10 342 1.6 4.8 0.00 0.00 0.00 87 1019.7
20260504015522 10 0.0 0.0 0.00 0.00 0.00 88 1019.8
20260504014536 10 0.0 0.0 0.00 0.00 0.00 88 1019.8
20260504013528 10 0.0 0.0 0.00 0.00 0.00 87 1019.7
20260504012523 10 0.0 0.0 0.00 0.00 0.00 86 1019.9
20260504011535 11 0.0 0.0 0.00 0.00 0.00 84 1019.6
20260504010528 11 0.0 0.0 0.00 0.00 0.00 83 1019.6
20260504005520 11 0.0 0.0 0.00 0.00 0.00 82 1019.7
20260504004534 11 0.0 0.0 0.00 0.00 0.00 81 1019.8
20260504003526 11 330 0.0 1.6 0.00 0.00 0.00 81 1019.7
20260504002520 11 336 1.6 4.8 0.00 0.00 0.00 82 1019.8
20260504001533 10 0.0 0.0 0.00 0.00 0.00 87 1020.0
20260504000527 10 0.0 0.0 0.00 0.00 0.00 88 1020.0
20260503235520 10 0.0 0.0 0.00 0.00 0.00 88 1020.0
20260503234614 11 0.0 0.0 0.00 0.00 0.00 89 1020.1
20260503233529 11 0.0 0.0 0.00 0.00 0.00 89 1020.2
20260503232520 11 0.0 0.0 0.00 0.00 0.00 88 1020.2
20260503231556 11 0.0 0.0 0.00 0.00 0.00 88 1020.4
20260503230527 11 0.0 0.0 0.00 0.00 0.00 88 1020.4
20260503225519 12 295 0.0 4.8 0.00 0.00 0.00 89 1020.6
20260503224533 12 0.0 0.0 0.00 0.00 0.00 89 1020.6
20260503223546 12 0.0 0.0 0.00 0.00 0.00 89 1020.6
20260503222520 12 0.0 0.0 0.00 0.00 0.00 88 1020.4
20260503221533 12 0.0 0.0 0.00 0.00 0.00 87 1020.5
20260503220527 12 258 0.0 1.6 0.00 0.00 0.00 86 1020.5
20260503215520 12 0.0 0.0 0.00 0.00 0.00 84 1020.6
20260503214534 12 287 0.0 4.8 0.00 0.00 0.00 84 1020.4
20260503213611 12 298 1.6 4.8 0.00 0.00 0.00 84 1020.2
20260503212520 13 296 1.6 4.8 0.00 0.00 0.00 84 1020.3
20260503211533 13 320 3.2 6.4 0.00 0.00 0.00 83 1020.3
20260503210524 13 317 4.8 11.3 0.00 0.00 0.00 80 1020.3
20260503205610 13 299 3.2 6.4 0.00 0.00 0.00 69 1020.2
20260503204516 13 298 0.0 3.2 0.00 0.00 0.00 70 1020.1
20260503203526 13 302 1.6 6.4 0.00 0.00 0.00 67 1020.1
20260503202517 13 296 1.6 4.8 0.00 0.00 0.00 66 1020.1
20260503201528 13 318 1.6 6.4 0.00 0.00 0.00 70 1020.2
20260503200517 13 326 0.0 3.2 0.00 0.00 0.00 73 1020.2
20260503195525 13 288 1.6 6.4 0.00 0.00 0.00 74 1020.2
20260503194537 13 277 1.6 4.8 0.00 0.00 0.00 73 1020.0
20260503193606 13 268 1.6 4.8 0.00 0.00 0.00 75 1020.0
20260503192518 13 283 0.0 3.2 0.00 0.00 0.00 75 1019.9
20260503191549 14 280 1.6 4.8 0.00 0.00 0.00 75 1019.8
20260503190537 14 301 3.2 9.7 0.00 0.00 0.00 75 1019.8
20260503185530 15 301 3.2 9.7 0.00 0.00 0.00 72 1019.8
20260503184523 15 317 4.8 14.5 0.00 0.00 0.00 70 1019.6
20260503183535 15 323 3.2 11.3 0.00 0.00 0.00 67 1019.3
20260503182529 16 319 4.8 11.3 0.00 0.00 0.00 66 1019.3
20260503181522 16 297 6.4 9.7 0.00 0.00 0.00 66 1019.1
20260503180537 16 305 3.2 6.4 0.00 0.00 0.00 65 1019.0
20260503175530 16 300 1.6 9.7 0.00 0.00 0.00 63 1019.0
20260503174523 17 285 1.6 4.8 0.00 0.00 0.00 62 1018.9
20260503173536 17 300 1.6 4.8 0.00 0.00 0.00 61 1018.8
20260503172532 17 286 3.2 6.4 0.00 0.00 0.00 60 1018.7
20260503171525 18 308 3.2 6.4 0.00 0.00 0.00 58 1018.6
20260503170517 18 272 0.0 4.8 0.00 0.00 0.00 58 1018.7
20260503150519 20 286 4.8 11.3 0.00 0.00 0.00 52 1019.5
20260503130524 20 311 6.4 17.7 0.00 0.00 0.00 50 1020.1
20260503110523 20 305 4.8 12.9 0.00 0.00 0.00 51 1020.4
20260503081520 17 285 4.8 11.3 0.00 0.00 0.00 54 1021.4
20260503080533 17 289 4.8 9.7 0.00 0.00 0.00 57 1021.6
20260503072526 16 218 1.6 9.7 0.00 0.00 0.00 68 1021.7
20260503071519 16 257 1.6 4.8 0.00 0.00 0.00 69 1021.9
20260503070535 16 0.0 0.0 0.00 0.00 0.00 66 1021.9
20260503054524 13 0.0 0.0 0.00 0.00 0.00 68 1021.6
20260503053534 12 0.0 0.0 0.00 0.00 0.00 72 1021.6
20260503052528 11 0.0 0.0 0.00 0.00 0.00 75 1021.7
20260503051520 11 55 0.0 3.2 0.00 0.00 0.00 77 1021.7
20260503050533 10 0.0 0.0 0.00 0.00 0.00 80 1021.6
20260503045528 8 0.0 0.0 0.00 0.00 0.00 85 1021.5
20260503044520 8 106 0.0 1.6 0.00 0.00 0.00 88 1021.6
20260503043534 8 0.0 0.0 0.00 0.00 0.00 88 1021.4
20260503042549 7 0.0 0.0 0.00 0.00 0.00 87 1021.5
20260503041521 8 0.0 0.0 0.00 0.00 0.00 87 1021.4
20260503040535 8 0.0 0.0 0.00 0.00 0.00 86 1021.4
20260503035528 7 0.0 0.0 0.00 0.00 0.00 85 1021.3
20260503034521 7 0.0 0.0 0.00 0.00 0.00 85 1021.4